Regional Weather Roundup
Issued by NWS Goodland, KS

Home | Current Version | Previous Version | Graphics & Text | Print | Product List | Glossary On
Versions: 1 2 3 4 5 6 7 8 9 10 11 12 13 14 15 16 17 18 19 20 21 22 23 24 25 26 27 28 29 30 31 32 33 34 35 36 37 38 39 40 41 42 43 44 45 46 47 48 49 50
000
ASUS43 KGLD 032159
RWRGLD

GOODLAND FORECAST AREA HOURLY WEATHER ROUNDUP
NATIONAL WEATHER SERVICE GOODLAND KS
300 PM MST TUE MAR 03 2015

...OFFICIAL OBSERVATIONS...

CITY           SKY/WX    TMP DP  RH WIND       PRES   REMARKS
GOODLAND KS    PTSUNNY   31  14  49 N16G22    29.87F WCI  20
HILL CITY KS   CLOUDY    36  14  40 N15       29.93S
IMPERIAL NEB     N/A     30   9  41 N13       29.92R WCI  20
MCCOOK NEB     MOSUNNY   35  11  36 N12G23    29.92S
AKRON CO       CLOUDY    25  11  55 NE8       29.84F
BURLINGTON CO  CLOUDY    28  15  58 N18       29.84F WCI  15
LIMON CO       NOT AVBL
$$

...UNOFFICIAL OBSERVATIONS...

CITY           SKY/WX    TMP DP  RH WIND       PRES   REMARKS
COLBY KS       CLOUDY    32  18  55 N14G21    29.91S
GOVE KS          N/A     35  32  89 MISG        N/A
LENORA KS        N/A     33  32  96 S16         N/A
NORTON KS      PTSUNNY   34   9  35 N15       29.91F
SHARON SPRINGS   N/A     30  22  73 NE13G20     N/A  WCI  20
KIT CARSON CO    N/A     27  20  74 MISG        N/A
YUMA CO          N/A     28  11  48 NE12        N/A  WCI  18
$$



USA.gov is the U.S. government's official web portal to all federal, state and local government web resources and services.